EW2359 Weather Reports


time (UTC)temp
F
wind
direction
speed
knots
gust
knots
rain 1hr
in
rain 24hr
in
rain mn
in
humidity
%
barometer
mb
20260906073542 74 356 1.7 5.2 0.00 0.00 0.00 85 1014.1
20260906073042 75 14 2.6 5.2 0.00 0.00 0.00 86 1014.1
20260906072542 75 20 0.0 5.2 0.00 0.00 0.00 86 1014.1
20260906072042 75 15 3.5 5.2 0.00 0.00 0.00 87 1014.0
20260906071542 75 44 3.5 5.2 0.00 0.00 0.00 87 1014.0
20260906070542 75 13 1.7 4.3 0.00 0.00 0.00 87 1014.1
20260906070042 75 35 2.6 4.3 0.00 0.00 0.00 87 1014.0
20260906065542 75 40 3.5 6.1 0.00 0.00 0.00 87 1014.0
20260906065042 75 50 1.7 6.1 0.00 0.00 0.00 87 1014.0
20260906064042 75 24 1.7 5.2 0.00 0.00 0.00 87 1014.1
20260906063542 75 43 2.6 6.1 0.00 0.00 0.00 87 1014.1
20260906063042 75 18 1.7 6.1 0.00 0.00 0.00 87 1014.2
20260906062042 75 39 2.6 2.6 0.00 0.00 0.00 87 1014.2
20260906061542 75 6 1.7 3.5 0.00 0.00 0.00 87 1014.1
20260906061042 75 23 0.9 5.2 0.00 0.00 0.00 87 1014.1
20260906060542 76 91 0.9 5.2 0.00 0.00 0.00 87 1014.0
20260906060042 76 48 1.7 3.5 0.00 0.00 0.00 87 1014.0
20260906055542 76 12 2.6 4.3 0.00 0.00 0.00 87 1013.9
20260906055042 76 37 0.0 4.3 0.00 0.00 0.00 87 1013.8
20260906054542 76 27 0.9 3.5 0.00 0.00 0.00 87 1013.8
20260906054042 76 14 2.6 3.5 0.00 0.00 0.00 87 1013.8
20260906053542 76 20 1.7 3.5 0.00 0.00 0.00 87 1013.8
20260906053042 76 32 0.9 3.5 0.00 0.00 0.00 87 1013.8
20260906052042 76 35 2.6 4.3 0.00 0.00 0.00 87 1013.7
20260906051542 76 27 1.7 4.3 0.00 0.00 0.00 87 1013.7
20260906051042 76 351 2.6 4.3 0.00 0.00 0.00 87 1013.6
20260906050542 77 33 1.7 4.3 0.00 0.00 0.00 86 1013.8
20260906050042 77 16 1.7 5.2 0.00 0.00 0.00 86 1013.6
20260906045542 77 19 2.6 5.2 0.00 0.00 0.00 86 1013.5
20260906045041 77 32 2.6 7.0 0.00 0.00 0.00 86 1013.5
20260906044042 77 60 2.6 7.0 0.00 0.00 0.00 86 1013.5
20260906043542 77 16 1.7 4.3 0.00 0.00 0.00 86 1013.4
20260906043041 77 70 0.9 3.5 0.00 0.00 0.00 86 1013.4
20260906042542 77 10 1.7 4.3 0.00 0.00 0.00 86 1013.3
20260906042041 78 62 2.6 4.3 0.00 0.00 0.00 86 1013.3
20260906041542 78 40 0.9 4.3 0.00 0.00 0.00 86 1013.4
20260906041041 78 38 1.7 4.3 0.00 0.00 0.00 85 1013.4
20260906040542 78 356 1.7 4.3 0.00 0.00 0.00 85 1013.3
20260906040111 78 29 0.9 3.5 0.00 0.00 0.00 85 1013.3
20260906035542 78 1 3.5 4.3 0.00 0.00 0.00 85 1013.2
20260906035042 78 6 0.9 4.3 0.00 0.00 0.00 85 1013.2
20260906034541 78 33 0.9 3.5 0.00 0.00 0.00 84 1013.2
20260906034041 78 36 1.7 4.3 0.00 0.00 0.00 84 1013.1
20260906033541 78 27 0.9 4.3 0.00 0.00 0.00 84 1013.1
20260906033044 78 345 0.9 4.3 0.00 0.00 0.00 84 1013.1
20260906032611 79 49 2.6 6.1 0.00 0.00 0.00 83 1013.1
20260906032111 79 25 2.6 6.1 0.00 0.00 0.00 83 1013.2
20260906031611 79 13 0.0 5.2 0.00 0.00 0.00 82 1013.1
20260906031042 79 38 3.5 7.0 0.00 0.00 0.00 82 1013.1
20260906030541 79 45 1.7 7.0 0.00 0.00 0.00 82 1013.2
20260906030042 79 356 0.9 6.1 0.00 0.00 0.00 81 1013.0
20260906025541 80 12 2.6 6.1 0.00 0.00 0.00 80 1012.9
20260906024041 81 12 3.5 6.1 0.00 0.00 0.00 78 1012.9
20260906023041 81 23 0.0 4.3 0.00 0.00 0.00 77 1012.9
20260906022542 82 356 0.9 6.1 0.00 0.00 0.00 76 1012.8
20260906022041 82 48 1.7 6.1 0.00 0.00 0.00 75 1012.7
20260906021541 82 33 0.9 5.2 0.00 0.00 0.00 75 1012.6
20260906020542 82 34 1.7 4.3 0.00 0.00 0.00 74 1012.4
20260906020042 83 32 2.6 2.6 0.00 0.00 0.00 74 1012.4
20260906015541 83 28 0.9 2.6 0.00 0.00 0.00 74 1012.3
20260906015041 83 52 0.9 2.6 0.00 0.00 0.00 74 1012.2
20260906014611 83 33 0.9 2.6 0.00 0.00 0.00 74 1012.2
20260906014111 83 40 0.9 2.6 0.00 0.00 0.00 74 1012.0
20260906013611 83 27 1.7 2.6 0.00 0.00 0.00 74 1011.9
20260906013041 83 37 0.0 3.5 0.00 0.00 0.00 74 1011.8
20260906012541 83 54 1.7 3.5 0.00 0.00 0.00 74 1011.8
20260906012041 84 31 0.0 1.7 0.00 0.00 0.00 73 1011.9
20260906011541 84 39 0.0 2.6 0.00 0.00 0.00 73 1011.8
20260906011042 84 46 0.9 2.6 0.00 0.00 0.00 73 1011.7
20260906010542 84 38 0.9 3.5 0.00 0.00 0.00 72 1011.6
20260906010041 85 46 0.9 3.5 0.00 0.00 0.00 72 1011.6
20260906005041 85 16 1.7 3.5 0.00 0.00 0.00 71 1011.3
20260906004541 86 43 0.9 3.5 0.00 0.00 0.00 70 1011.2
20260906004041 86 19 0.0 3.5 0.00 0.00 0.00 69 1011.1
20260906003541 86 16 0.0 3.5 0.00 0.00 0.00 69 1011.0
20260906003042 86 6 0.9 4.3 0.00 0.00 0.00 69 1011.0
20260906002541 86 6 0.0 7.0 0.00 0.00 0.00 69 1010.9
20260906001541 87 25 0.0 0.0 0.00 0.00 0.00 71 1011.0
20260906000612 87 25 0.0 0.0 0.00 0.00 0.00 71 1011.0
20260906000111 87 25 0.0 0.0 0.00 0.00 0.00 72 1011.0
20260905235541 87 25 0.0 0.0 0.00 0.00 0.00 72 1011.1
20260905235041 87 25 0.0 0.9 0.00 0.00 0.00 72 1011.1
20260905234541 87 25 0.0 1.7 0.00 0.00 0.00 72 1011.1
20260905234041 88 25 0.9 1.7 0.00 0.00 0.00 73 1011.1
20260905233541 88 6 0.9 1.7 0.00 0.00 0.00 73 1011.0
20260905232541 88 6 0.0 0.9 0.00 0.00 0.00 72 1011.2
20260905231541 88 6 0.0 0.9 0.00 0.00 0.00 72 1011.2
20260905230541 88 6 0.9 3.5 0.00 0.00 0.00 71 1011.1
20260905230041 89 29 1.7 3.5 0.00 0.00 0.00 71 1011.1
20260905225541 89 337 0.9 1.7 0.00 0.00 0.00 70 1011.1
20260905224111 89 352 0.9 4.3 0.00 0.00 0.00 68 1011.0
20260905222541 89 351 3.5 4.3 0.00 0.00 0.00 67 1010.7
20260905221541 90 212 0.0 0.0 0.00 0.00 0.00 67 1011.1
20260905221042 90 212 0.0 0.0 0.00 0.00 0.00 67 1011.0
20260905220111 90 212 0.0 2.6 0.00 0.00 0.00 65 1010.5
20260905215611 90 212 0.0 1.7 0.00 0.00 0.00 65 1010.3
20260905215111 90 141 0.0 0.0 0.00 0.00 0.00 64 1010.4
20260905214041 91 141 0.0 0.9 0.00 0.00 0.00 63 1010.7
20260905213611 91 141 0.0 0.9 0.00 0.00 0.00 63 1010.9
20260905213041 91 85 0.0 0.9 0.00 0.00 0.00 63 1011.0
20260905212610 92 85 0.0 0.9 0.00 0.00 0.00 65 1010.9
20260905212041 92 85 0.0 0.9 0.00 0.00 0.00 61 1010.9
20260905211541 92 85 0.0 0.9 0.00 0.00 0.00 62 1010.8
20260905210541 93 168 0.0 2.6 0.00 0.00 0.00 61 1011.2
20260905210041 93 168 0.0 2.6 0.00 0.00 0.00 58 1011.1
20260905205611 94 222 0.0 0.9 0.00 0.00 0.00 58 1011.1
20260905205041 94 222 0.0 0.9 0.00 0.00 0.00 58 1011.3
20260905204611 94 222 0.0 2.6 0.00 0.00 0.00 59 1011.3
20260905204041 93 222 0.0 2.6 0.00 0.00 0.00 59 1011.2
20260905203610 93 225 0.0 5.2 0.00 0.00 0.00 58 1011.4
20260905203041 93 255 0.9 5.2 0.00 0.00 0.00 58 1011.5
20260905202540 95 254 3.5 5.2 0.00 0.00 0.00 58 1011.5
20260905202040 94 241 0.0 4.3 0.00 0.00 0.00 59 1011.6
20260905201111 93 229 1.7 6.1 0.00 0.00 0.00 58 1011.6
20260905200041 94 252 1.7 6.1 0.00 0.00 0.00 57 1011.6
20260905195540 94 237 4.3 6.1 0.00 0.00 0.00 56 1011.6
20260905195041 95 210 0.9 6.1 0.00 0.00 0.00 56 1011.7
20260905194540 96 196 3.5 6.1 0.00 0.00 0.00 53 1011.9
20260905194041 96 255 0.0 4.3 0.00 0.00 0.00 54 1011.8
20260905193541 95 262 0.0 6.1 0.00 0.00 0.00 56 1011.8
20260905193041 95 247 0.0 6.1 0.00 0.00 0.00 54 1011.9
20260905192541 96 239 2.6 6.1 0.00 0.00 0.00 54 1012.0
20260905192111 95 251 0.0 6.1 0.00 0.00 0.00 56 1012.0
20260905191540 94 228 3.5 7.0 0.00 0.00 0.00 56 1012.2
20260905191041 94 204 2.6 7.0 0.00 0.00 0.00 56 1012.3
20260905190541 94 251 0.0 3.5 0.00 0.00 0.00 56 1012.3
20260905185540 93 208 0.0 6.1 0.00 0.00 0.00 56 1012.5
20260905185111 93 218 0.0 4.3 0.00 0.00 0.00 57 1012.5
20260905184610 94 212 1.7 7.0 0.00 0.00 0.00 55 1012.6
20260905184110 94 244 1.7 7.0 0.00 0.00 0.00 57 1012.7
20260905183540 93 230 2.6 4.3 0.00 0.00 0.00 57 1012.7
20260905183041 92 269 0.9 6.1 0.00 0.00 0.00 57 1012.8
20260905182610 92 249 2.6 6.1 0.00 0.00 0.00 57 1012.8
20260905182110 92 260 1.7 4.3 0.00 0.00 0.00 59 1012.9
20260905181541 92 236 0.0 5.2 0.00 0.00 0.00 58 1013.0
20260905181110 92 201 1.7 5.2 0.00 0.00 0.00 57 1013.1
20260905175540 91 255 3.5 4.3 0.00 0.00 0.00 58 1013.0
20260905174040 90 219 1.7 7.8 0.00 0.00 0.00 57 1013.2
20260905173541 90 243 7.0 7.8 0.00 0.00 0.00 57 1013.1
20260905173041 90 255 6.1 7.8 0.00 0.00 0.00 56 1013.3
20260905172540 90 216 0.0 3.5 0.00 0.00 0.00 58 1013.3
20260905172040 90 211 2.6 7.0 0.00 0.00 0.00 59 1013.3
20260905171541 89 153 3.5 7.0 0.00 0.00 0.00 58 1013.4
20260905171040 89 147 2.6 4.3 0.00 0.00 0.00 58 1013.4
20260905170540 89 166 3.5 4.3 0.00 0.00 0.00 58 1013.5
20260905170040 88 201 0.9 4.3 0.00 0.00 0.00 61 1013.5
20260905165541 88 241 2.6 4.3 0.00 0.00 0.00 61 1013.7
20260905165041 87 143 1.7 5.2 0.00 0.00 0.00 61 1013.7
20260905164540 87 157 0.9 6.1 0.00 0.00 0.00 62 1013.8
20260905163610 86 216 1.7 8.7 0.00 0.00 0.00 62 1013.9
20260905163040 86 238 4.3 8.7 0.00 0.00 0.00 60 1014.0
20260905162610 86 218 3.5 5.2 0.00 0.00 0.00 62 1014.0
20260905162110 85 225 0.9 6.1 0.00 0.00 0.00 63 1014.0
20260905161540 85 162 0.9 6.1 0.00 0.00 0.00 63 1014.0
20260905161041 85 222 2.6 6.1 0.00 0.00 0.00 63 1013.9
20260905160610 84 168 0.9 5.2 0.00 0.00 0.00 63 1014.0
20260905155610 84 166 1.7 7.8 0.00 0.00 0.00 63 1014.0
20260905154540 83 185 1.7 3.5 0.00 0.00 0.00 64 1013.7
20260905154040 83 169 1.7 4.3 0.00 0.00 0.00 66 1013.9
20260905153540 82 232 1.7 6.1 0.00 0.00 0.00 65 1014.1
20260905153110 82 240 3.5 6.1 0.00 0.00 0.00 66 1014.1
20260905152040 82 160 3.5 7.0 0.00 0.00 0.00 66 1014.1
20260905151540 82 246 3.5 6.1 0.00 0.00 0.00 66 1014.1
20260905151040 81 231 2.6 7.0 0.00 0.00 0.00 67 1014.1
20260905150611 81 181 3.5 7.0 0.00 0.00 0.00 66 1014.1
20260905150110 81 160 1.7 6.1 0.00 0.00 0.00 66 1014.1
20260905145610 81 163 3.5 6.1 0.00 0.00 0.00 66 1014.2
20260905145110 81 216 1.7 6.1 0.00 0.00 0.00 68 1014.2
20260905144610 81 139 0.9 5.2 0.00 0.00 0.00 68 1014.2
20260905144040 81 167 2.6 6.1 0.00 0.00 0.00 67 1014.3
20260905143540 80 158 2.6 7.8 0.00 0.00 0.00 67 1014.2
20260905143040 80 168 3.5 7.8 0.00 0.00 0.00 67 1014.3
20260905142540 80 181 1.7 7.0 0.00 0.00 0.00 68 1014.3
20260905142040 79 175 6.1 7.0 0.00 0.00 0.00 70 1014.3
20260905141540 79 123 1.7 7.8 0.00 0.00 0.00 70 1014.4
20260905141040 79 193 1.7 7.8 0.00 0.00 0.00 70 1014.4
20260905140610 78 160 1.7 10.4 0.00 0.00 0.00 70 1014.4
20260905140041 78 180 3.5 10.4 0.00 0.00 0.00 70 1014.3
20260905135540 78 183 5.2 6.1 0.00 0.00 0.00 71 1014.4
20260905134540 77 187 6.1 7.8 0.00 0.00 0.00 72 1014.4
20260905134040 77 130 2.6 7.8 0.00 0.00 0.00 73 1014.4
20260905133540 77 164 4.3 6.1 0.00 0.00 0.00 73 1014.4
20260905132540 77 193 6.1 9.6 0.00 0.00 0.00 74 1014.2
20260905132040 76 167 2.6 9.6 0.00 0.00 0.00 74 1014.2
20260905131040 76 149 0.0 6.1 0.00 0.00 0.00 76 1014.5
20260905130540 75 168 2.6 5.2 0.00 0.00 0.00 76 1014.5
20260905130040 75 149 0.9 5.2 0.00 0.00 0.00 76 1014.6
20260905125610 75 157 1.7 4.3 0.00 0.00 0.00 78 1014.7
20260905125110 75 143 1.7 5.2 0.00 0.00 0.00 78 1014.5
20260905124540 74 55 2.6 5.2 0.00 0.00 0.00 79 1014.5
20260905123540 74 163 0.9 5.2 0.00 0.00 0.00 80 1014.6
20260905123039 74 157 2.6 5.2 0.00 0.00 0.00 80 1014.6
20260905122039 74 37 1.7 3.5 0.00 0.00 0.00 81 1014.5
20260905121540 74 133 0.9 7.8 0.00 0.00 0.00 80 1014.6
20260905121040 74 165 1.7 7.8 0.00 0.00 0.00 80 1014.6
20260905115610 75 158 2.6 5.2 0.00 0.00 0.00 79 1014.5
20260905115040 75 235 0.9 5.2 0.00 0.00 0.00 79 1014.5
20260905114540 75 174 0.0 6.1 0.00 0.00 0.00 78 1014.5
20260905113540 76 31 2.6 6.1 0.00 0.00 0.00 79 1014.1
20260905113039 76 108 2.6 7.8 0.00 0.00 0.00 80 1014.2
20260905112539 76 126 1.7 7.8 0.00 0.00 0.00 80 1014.0
20260905112109 76 54 5.2 13.0 0.00 0.00 0.00 81 1014.1
20260905111609 77 190 3.5 13.0 0.00 0.00 0.00 82 1013.8
20260905111109 77 186 2.6 10.4 0.00 0.00 0.00 87 1013.8
20260905110609 77 24 4.3 9.6 0.00 0.00 0.00 90 1013.7
20260905110039 77 234 2.6 2.6 0.00 0.00 0.00 92 1013.2
20260905105539 77 234 0.0 0.0 0.00 0.00 0.00 92 1013.0
20260905105039 77 234 0.0 0.0 0.00 0.00 0.00 92 1013.0
20260905104539 77 234 0.0 0.0 0.00 0.00 0.00 92 1012.9
20260905104039 77 234 0.0 0.0 0.00 0.00 0.00 92 1012.9
20260905103539 77 234 0.0 0.0 0.00 0.00 0.00 92 1012.9
20260905103039 77 234 0.0 0.0 0.00 0.00 0.00 92 1013.0
20260905102539 77 234 0.0 0.0 0.00 0.00 0.00 92 1012.8
20260905101539 77 234 0.0 0.0 0.00 0.00 0.00 92 1012.9
20260905100539 77 234 0.0 0.0 0.00 0.00 0.00 92 1012.9
20260905100109 77 234 0.0 0.0 0.00 0.00 0.00 92 1012.9
20260905095539 77 234 0.0 0.0 0.00 0.00 0.00 92 1012.8
20260905095039 77 234 0.0 0.0 0.00 0.00 0.00 91 1012.7
20260905094109 77 234 0.0 0.0 0.00 0.00 0.00 91 1012.8
20260905092539 77 234 0.0 0.0 0.00 0.00 0.00 91 1012.8
20260905092039 77 234 0.0 0.0 0.00 0.00 0.00 91 1012.7
20260905091539 77 234 0.0 0.0 0.00 0.00 0.00 91 1012.7
20260905091038 77 234 0.0 0.0 0.00 0.00 0.00 91 1012.8
20260905090608 77 234 0.0 0.0 0.00 0.00 0.00 91 1012.8
20260905090108 77 234 0.0 0.0 0.00 0.00 0.00 91 1012.9
20260905085609 77 234 0.0 0.0 0.00 0.00 0.00 91 1012.8
20260905085108 77 234 0.0 0.0 0.00 0.00 0.00 91 1012.7
20260905084538 77 234 0.0 0.0 0.00 0.00 0.00 91 1012.6
20260905084108 77 234 0.0 0.0 0.00 0.00 0.00 91 1012.7
20260905083538 77 234 0.0 0.0 0.00 0.00 0.00 91 1012.7
20260905083038 77 234 0.0 0.0 0.00 0.00 0.00 91 1012.6
20260905082608 78 234 0.0 0.0 0.00 0.00 0.00 91 1012.5
20260905082108 78 234 0.0 0.0 0.00 0.00 0.00 90 1012.3
20260905080038 78 234 0.0 0.0 0.00 0.00 0.00 90 1012.3
20260905075608 78 234 0.0 0.0 0.00 0.00 0.00 90 1012.3
20260905075107 78 234 0.0 0.0 0.00 0.00 0.00 90 1012.2
20260905074108 78 234 0.0 0.0 0.00 0.00 0.00 90 1012.1